Location: Greenwich
(51.4790°N, 0.0090°E)
Time: 22:02:24
(UTC+01:00)

Vanguard 2 Rocket - All Passes

Search period start: 12 April 2024 00:00
Search period end: 22 April 2024 00:00
Orbit: 555 x 3307 km, 32.9° (Epoch: 11 April)

Date Brightness Start Highest point End Pass type
(mag) Time Alt. Az. Time Alt. Az. Time Alt. Az.
12 Apr - 01:31:16 10° SW 01:47:55 36° S 02:00:32 10° ESE visible
12 Apr - 03:47:13 10° WSW 04:02:18 35° SSW 04:12:33 10° SE visible
12 Apr - 06:05:46 10° WSW 06:14:53 20° SW 06:21:36 10° S daylight
12 Apr - 22:18:45 10° S 22:30:14 19° SE 22:41:13 10° ESE visible
13 Apr - 00:28:09 10° SW 00:44:35 34° SSE 00:58:10 10° ESE visible
13 Apr - 02:42:51 10° WSW 02:59:26 38° S 03:11:15 10° ESE visible
13 Apr - 05:00:23 10° WSW 05:12:58 27° SSW 05:21:44 10° SSE visible
13 Apr - 21:20:34 10° SSE 21:27:30 13° SE 21:34:27 10° ESE visible
13 Apr - 23:25:47 10° SSW 23:41:16 30° SSE 23:55:11 10° ESE visible
14 Apr - 01:38:56 10° SW 01:56:13 39° S 02:09:28 10° ESE visible
14 Apr - 03:55:29 10° WSW 04:10:34 34° SSW 04:21:07 10° SE visible
14 Apr - 06:15:13 10° WSW 06:22:51 16° SW 06:28:53 10° S daylight
14 Apr - 22:24:21 10° S 22:38:03 24° SE 22:51:24 10° ESE visible
15 Apr - 00:35:34 10° SW 00:52:47 38° SSE 01:07:12 10° ESE visible
15 Apr - 02:50:57 10° WSW 03:07:44 38° SSW 03:19:56 10° SE visible
15 Apr - 05:09:09 10° W 05:21:01 24° SW 05:29:42 10° SSE visible
15 Apr - 21:24:13 10° S 21:35:08 18° SE 21:46:22 10° ESE visible
15 Apr - 23:32:52 10° SW 23:49:17 35° SSE 00:04:22 10° ESE visible
16 Apr - 01:46:52 10° WSW 02:04:29 41° S 02:18:14 10° ESE visible
16 Apr - 04:03:55 10° WSW 04:18:43 31° SSW 04:29:23 10° SSE visible
16 Apr - 06:25:53 10° WSW 06:30:38 12° SW 06:34:47 10° SSW daylight
16 Apr - 20:26:58 10° SSE 20:32:36 12° SE 20:38:26 10° ESE visible
16 Apr - 22:30:57 10° SSW 22:45:54 30° SSE 23:00:51 10° E visible
17 Apr - 00:43:20 10° SW 01:00:57 41° S 01:16:01 10° ESE visible
17 Apr - 02:59:14 10° WSW 03:15:54 37° SSW 03:28:23 10° SE visible
17 Apr - 05:18:18 10° W 05:28:53 20° SW 05:37:05 10° S visible
17 Apr - 21:29:59 10° S 21:42:48 24° SE 21:56:27 10° E visible
17 Apr - 23:40:25 10° SW 23:57:20 39° SSE 00:13:15 10° ESE visible
18 Apr - 01:55:02 10° WSW 02:12:39 40° S 02:26:47 10° SE visible
18 Apr - 04:12:36 10° W 04:26:40 27° SSW 04:37:17 10° SSE visible
18 Apr - 20:30:25 10° SSE 20:40:06 17° SE 20:50:41 10° ESE visible
18 Apr - 22:38:11 10° SSW 22:53:48 35° SSE 23:09:52 10° ESE visible
19 Apr - 00:51:22 10° WSW 01:09:06 42° S 01:24:37 10° ESE visible
19 Apr - 03:07:41 10° WSW 03:23:56 34° SSW 03:36:32 10° SSE visible
19 Apr - 05:28:13 10° WSW 05:36:34 15° SW 05:43:31 10° SSW daylight
19 Apr - 19:35:28 10° SE 19:37:50 10° SE 19:40:16 10° ESE daylight
19 Apr - 21:36:44 10° SSW 21:50:32 29° SSE 22:05:47 10° E visible
19 Apr - 23:48:18 10° SW 00:05:23 41° S 00:21:55 10° ESE visible
20 Apr - 02:03:22 10° WSW 02:20:45 39° SSW 02:35:06 10° SE visible
20 Apr - 04:21:38 10° W 04:34:26 23° SW 04:44:38 10° S visible
20 Apr - 20:36:16 10° S 20:47:40 22° SE 21:00:46 10° E visible
20 Apr - 22:45:52 10° SW 23:01:44 38° SSE 23:18:37 10° ESE visible
21 Apr - 00:59:37 10° WSW 01:17:11 42° S 01:33:02 10° SE visible
21 Apr - 03:16:22 10° W 03:31:49 30° SSW 03:44:19 10° SSE visible
21 Apr - 05:40:30 10° WSW 05:44:04 11° SW 05:47:24 10° SW daylight
21 Apr - 19:37:25 10° SSE 19:45:15 15° SE 19:54:10 10° ESE daylight
21 Apr - 21:44:06 10° SSW 21:58:20 33° SSE 22:14:41 10° E visible
